[[{"header":{"parameterUnit":"m.s-1","parameterCategory":2,"la1":30.2991,"la2":30.254,"lo1":-89.0895,"lo2":-89.0444,"dx":0.0017,"dy":0.0017,"nx":28,"ny":28,"refTime":"2023-02-06T09:00:00:Z","depth":"0","parameterNumber":2,"parameterNumberName":"U-component_of_CURRENTS"},"data":[0,0,0,0,0,0,0,0,0,0,0,0,0,0,0,0,0,0,0,0,0,0,0,0,0,0,0,0,0,0,0,0,0,0,0,0,0,0,0,0,0,0,0,0,0,0,0,0,0,0,0,0,0,0,0,0,0,0,-0.2982,-0.2982,0,-0.2991,-0.299,-0.299,-0.2929,-0.2928,-0.2927,-0.2926,-0.2826,-0.2824,-0.2822,0,0,0,0,0,0,0,0,0,0,0,0,0,-0.281,-0.2813,-0.2982,-0.2982,-0.2983,-0.2991,-0.299,-0.2989,-0.2929,-0.2928,-0.2927,-0.2926,-0.2826,-0.2824,-0.2822,0,0,0,0,0,0,0,0,0,0,0,0,0,-0.2851,-0.2815,-0.2981,-0.296,-0.2959,-0.2991,-0.299,-0.2989,-0.2929,-0.2928,-0.2926,-0.2925,-0.2827,-0.2824,-0.2822,-0.2834,0,0,-0.2814,-0.2812,0,0,0,0,0,0,0,0,-0.2849,-0.2856,-0.2962,-0.2962,-0.2961,-0.2964,-0.2893,-0.2935,-0.293,-0.2932,-0.2926,-0.2924,-0.2868,-0.2862,-0.2857,-0.2829,-0.2825,-0.2813,-0.2812,-0.2811,-0.281,0,0,0,0,0,0,0,-0.2846,-0.2855,-0.2977,-0.2964,-0.2963,-0.2916,-0.292,-0.29,-0.29,-0.2932,-0.2929,-0.2944,-0.2866,-0.286,-0.2854,-0.2823,-0.2813,-0.2811,-0.2809,-0.2808,-0.2802,-0.2804,0,0,0,0,0,0,-0.287,-0.2854,-0.2977,-0.2978,-0.2909,-0.2921,-0.2925,-0.2958,-0.2902,-0.2896,-0.2945,-0.2941,-0.2865,-0.2857,-0.285,-0.2853,-0.2811,-0.2808,-0.2807,-0.2801,-0.2802,-0.2804,0,0,0,0,0,0,-0.2866,-0.2881,-0.2976,-0.292,-0.293,-0.2927,-0.2963,-0.2959,-0.2958,-0.2915,-0.2904,-0.295,-0.2864,-0.2854,-0.2843,-0.2849,-0.2807,-0.2804,-0.2799,-0.2801,-0.2803,-0.2865,0,0,0,0,0,0,-0.2861,-0.288,-0.2905,-0.2923,-0.2935,-0.3009,-0.2965,-0.2961,-0.2973,-0.2967,-0.2916,-0.2905,-0.2862,-0.2848,-0.2841,-0.2845,-0.2802,-0.2797,-0.28,-0.2803,-0.2861,-0.2869,-0.2875,0,0,0,0,0,-0.2855,-0.2904,-0.2907,-0.2922,-0.2973,-0.3012,-0.3012,-0.2997,-0.2975,-0.2987,-0.295,-0.2906,-0.2859,-0.2847,-0.2838,-0.2841,-0.2796,-0.2799,-0.2802,-0.2857,-0.2867,-0.2875,0,0,0,0,0,0,-0.2845,-0.2904,-0.2907,-0.2971,-0.2996,-0.3005,-0.3021,-0.3011,-0.2993,-0.2982,-0.2926,-0.2914,-0.2903,-0.2877,-0.2865,-0.2851,-0.282,-0.2822,-0.2865,-0.2874,-0.2881,-0.2885,-0.28,0,0,0,0,0,-0.2859,-0.2906,-0.2948,-0.2997,-0.3016,-0.3019,-0.3031,-0.3026,-0.302,-0.301,-0.2978,-0.2942,-0.2912,-0.2897,-0.287,-0.2869,-0.2838,-0.2868,-0.2875,-0.2881,-0.2881,-0.2844,-0.2848,-0.2815,-0.2815,-0.2815,0,0,-0.2868,-0.2908,-0.2933,-0.2997,-0.3012,-0.3048,-0.3021,-0.3054,-0.3065,-0.3003,-0.3002,-0.2967,-0.2919,-0.291,-0.2903,-0.2886,-0.288,-0.2885,-0.2891,-0.2887,-0.2848,-0.2851,-0.2853,-0.2817,-0.2816,-0.2816,0,0,-0.2912,-0.2949,-0.3001,-0.303,-0.3074,-0.3076,-0.3093,-0.3112,-0.3099,-0.3108,-0.3056,-0.303,-0.3001,-0.296,-0.2935,-0.2973,-0.2919,-0.297,-0.3005,-0.297,-0.2971,-0.2972,-0.2954,-0.2952,-0.2973,-0.2973,-0.2973,0,-0.2918,-0.2995,-0.3018,-0.3073,-0.31,-0.3095,-0.3142,-0.3137,-0.3143,-0.3135,-0.3117,-0.306,-0.302,-0.2987,-0.2997,-0.2985,-0.2965,-0.2971,-0.2977,-0.2977,-0.2977,-0.2957,-0.2955,-0.2976,-0.2976,-0.2975,-0.2975,0,-0.2999,-0.3056,-0.3091,-0.3155,-0.318,-0.3225,-0.3232,-0.324,-0.3224,-0.3208,-0.3183,-0.3129,-0.3093,-0.3077,-0.3046,-0.3028,-0.3015,-0.2988,-0.295,-0.2984,-0.2962,-0.2958,-0.2981,-0.298,-0.2979,-0.2978,0,0,-0.302,-0.3128,-0.3138,-0.3175,-0.3228,-0.3256,-0.3279,-0.3295,-0.3297,-0.3276,-0.3266,-0.3211,-0.3175,-0.3146,-0.3098,-0.3065,-0.3051,-0.3036,-0.3033,-0.301,-0.2989,-0.2885,-0.2871,-0.3025,-0.3024,-0.3024,-0.2979,0,-0.3072,-0.3187,-0.3221,-0.3296,-0.3348,-0.3353,-0.3372,-0.3375,-0.3357,-0.3345,-0.3275,-0.3245,-0.3202,-0.318,-0.3143,-0.3063,-0.3043,-0.3067,-0.2966,-0.2963,-0.2859,-0.2864,-0.2804,-0.2749,-0.2975,-0.2974,-0.2974,0,-0.3133,-0.32,-0.3296,-0.3368,-0.3389,-0.3418,-0.3439,-0.3457,-0.343,-0.3417,-0.3375,-0.3321,-0.3258,-0.3221,-0.3112,-0.3131,-0.3077,-0.302,-0.3016,-0.2891,-0.2852,-0.2749,-0.2734,-0.2703,-0.2968,-0.2969,-0.2969,0,-0.3128,-0.3244,-0.3317,-0.3347,-0.3426,-0.3446,-0.3469,-0.3468,-0.3462,-0.345,-0.3428,-0.3368,-0.3299,-0.3236,-0.3098,-0.312,-0.2968,-0.2983,-0.2845,-0.2839,-0.2751,-0.2735,-0.268,-0.2927,-0.2927,-0.2927,-0.2927,0,-0.3168,-0.3219,-0.3318,-0.3355,-0.3401,-0.3456,-0.3469,-0.3494,-0.3493,-0.3455,-0.3448,-0.3388,-0.3296,-0.3185,-0.3112,-0.2937,-0.2976,-0.2845,-0.281,-0.2772,-0.276,-0.2698,-0.2715,-0.2926,-0.2926,-0.2926,-0.2927,0,-0.3141,-0.3221,-0.3293,-0.3385,-0.34,-0.3424,-0.3451,-0.3435,-0.3478,-0.3426,-0.3417,-0.3376,-0.3243,-0.3129,-0.2994,-0.2913,-0.2735,-0.2727,-0.2688,-0.2648,-0.2511,-0.2535,-0.2417,-0.2349,-0.2605,-0.2602,-0.26,0,-0.3141,-0.3183,-0.3281,-0.3274,-0.3304,-0.3337,-0.3319,-0.3398,-0.337,-0.3387,-0.3332,-0.3247,-0.3131,-0.2911,-0.2764,-0.2616,-0.2598,-0.2478,-0.2504,-0.2481,-0.2483,-0.2491,-0.2445,-0.2434,-0.2431,-0.2428,-0.2425,0,-0.3098,-0.3133,-0.3172,-0.3147,-0.314,-0.3166,-0.3163,-0.317,-0.3222,-0.3213,-0.3168,-0.3113,-0.2925,-0.273,-0.2532,-0.2443,-0.2427,-0.2411,-0.2396,-0.2343,-0.234,-0.2264,-0.2509,-0.2398,-0.2401,-0.2403,-0.2404,-0.2405,-0.3016,-0.2998,-0.2991,-0.2952,-0.2953,-0.2938,-0.2887,-0.2918,-0.2907,-0.2841,-0.2933,-0.2797,-0.2687,-0.2415,-0.2323,-0.216,-0.2211,-0.2118,-0.2152,-0.2165,-0.2077,-0.2256,-0.209,-0.2091,-0.2092,-0.2093,-0.2093,0,-0.2817,-0.2783,-0.2757,-0.2687,-0.2604,-0.2685,-0.2693,-0.2618,-0.2547,-0.2563,-0.2513,-0.2419,-0.2263,-0.2179,-0.2041,-0.1942,-0.1918,-0.1888,-0.1923,-0.1889,-0.2052,-0.2021,-0.1819,-0.1819,-0.1819,-0.182,-0.182,-0.182,-0.2692,-0.2567,-0.2539,-0.232,-0.2276,-0.2114,-0.2103,-0.2097,-0.2088,-0.1999,-0.1945,-0.1962,-0.1951,-0.2051,-0.1927,-0.184,-0.1796,-0.1733,-0.1723,-0.1898,-0.1924,-0.1949,-0.1922,-0.1703,-0.1703,-0.1522,-0.1521,-0.152]},{"header":{"parameterUnit":"m.s-1","parameterCategory":2,"la1":30.2991,"la2":30.254,"lo1":-89.0895,"lo2":-89.0444,"dx":0.0017,"dy":0.0017,"nx":28,"ny":28,"refTime":"2023-02-06T09:00:00:Z","depth":"0","parameterNumber":3,"parameterNumberName":"V-component_of_CURRENTS"},"data":[0,0,0,0,0,0,0,0,0,0,0,0,0,0,0,0,0,0,0,0,0,0,0,0,0,0,0,0,0,0,0,0,0,0,0,0,0,0,0,0,0,0,0,0,0,0,0,0,0,0,0,0,0,0,0,0,0,0,0.0667,0.0669,0,0.0823,0.0825,0.0826,0.0909,0.091,0.091,0.091,0.0983,0.0984,0.0986,0,0,0,0,0,0,0,0,0,0,0,0,0,0.0508,0.051,0.0667,0.0669,0.0671,0.0823,0.0825,0.0827,0.0909,0.091,0.091,0.091,0.0982,0.0984,0.0986,0,0,0,0,0,0,0,0,0,0,0,0,0,0.061,0.0511,0.0667,0.0732,0.0739,0.0822,0.0825,0.0827,0.0909,0.091,0.091,0.0911,0.0981,0.0984,0.0986,0.0992,0,0,0.0994,0.0995,0,0,0,0,0,0,0,0,0.0604,0.0615,0.072,0.0728,0.0736,0.0849,0.0795,0.0879,0.0909,0.0843,0.091,0.0911,0.0931,0.0937,0.0965,0.0995,0.0998,0.0994,0.0995,0.0996,0.0997,0,0,0,0,0,0,0,0.0597,0.061,0.0727,0.0722,0.0732,0.0777,0.0791,0.0812,0.0879,0.0849,0.0856,0.0875,0.0934,0.0962,0.0967,0.0999,0.0994,0.0996,0.0998,0.0998,0.1075,0.1076,0,0,0,0,0,0,0.0577,0.0603,0.0722,0.0732,0.0672,0.0779,0.0795,0.0811,0.0881,0.0894,0.0875,0.0879,0.0958,0.0964,0.0969,0.1001,0.0996,0.0999,0.1,0.1075,0.1075,0.1076,0,0,0,0,0,0,0.0573,0.0586,0.0716,0.0672,0.0692,0.0781,0.0798,0.0814,0.0842,0.0902,0.0913,0.0888,0.0958,0.0966,0.0997,0.1003,0.1,0.1002,0.1074,0.1075,0.1076,0.105,0,0,0,0,0,0,0.0568,0.0583,0.058,0.0671,0.0694,0.0756,0.0799,0.0816,0.0855,0.0861,0.0917,0.0925,0.0959,0.0993,0.0999,0.1007,0.1004,0.1073,0.1074,0.1075,0.105,0.105,0.105,0,0,0,0,0,0.0561,0.0553,0.0579,0.0593,0.0689,0.0756,0.0771,0.0835,0.0854,0.0863,0.0909,0.0923,0.1004,0.0995,0.1003,0.1011,0.1073,0.1074,0.1075,0.1051,0.105,0.105,0,0,0,0,0,0,0.0469,0.0564,0.0594,0.0611,0.0675,0.077,0.0781,0.0827,0.0873,0.0873,0.0928,0.0939,0.0968,0.0992,0.098,0.1037,0.1041,0.1044,0.102,0.102,0.102,0.1016,0.1006,0,0,0,0,0,0.045,0.0472,0.0567,0.0574,0.0605,0.0691,0.0723,0.077,0.0828,0.085,0.0894,0.0938,0.098,0.1,0.1033,0.1059,0.1093,0.1071,0.1071,0.107,0.1073,0.1139,0.1145,0.108,0.108,0.108,0,0,0.041,0.0467,0.0475,0.0557,0.0609,0.0654,0.071,0.0753,0.0791,0.0846,0.089,0.0931,0.0985,0.1024,0.1039,0.1044,0.1105,0.1072,0.1071,0.1074,0.1141,0.1148,0.1153,0.1081,0.1081,0.1081,0,0,0.0353,0.0397,0.0405,0.0463,0.0546,0.0609,0.0618,0.0713,0.0753,0.0805,0.0858,0.0909,0.0962,0.1019,0.1051,0.1067,0.1098,0.1069,0.107,0.1134,0.114,0.1145,0.1188,0.1198,0.1074,0.1074,0.1074,0,0.0298,0.0337,0.0412,0.0447,0.0493,0.0584,0.0612,0.0669,0.076,0.08,0.0808,0.093,0.0967,0.1043,0.1054,0.1067,0.1098,0.1064,0.1133,0.114,0.1146,0.1189,0.12,0.1073,0.1073,0.1073,0.1073,0,0.0267,0.0303,0.031,0.0393,0.0445,0.0481,0.0582,0.0629,0.0687,0.0758,0.0837,0.0906,0.0986,0.1004,0.1034,0.1102,0.1107,0.112,0.1131,0.1151,0.1195,0.1207,0.1071,0.1072,0.1072,0.1072,0,0,0.0134,0.0264,0.0266,0.0311,0.0427,0.0468,0.0531,0.063,0.0684,0.0763,0.084,0.092,0.0971,0.101,0.1061,0.1118,0.1185,0.1132,0.1136,0.1169,0.1312,0.1295,0.1307,0.1208,0.121,0.1212,0.1322,0,0.0088,0.014,0.0225,0.0275,0.0317,0.0433,0.0493,0.0591,0.0679,0.0771,0.0867,0.0944,0.097,0.101,0.1074,0.1165,0.1217,0.1153,0.1293,0.1297,0.1276,0.132,0.1218,0.1306,0.1333,0.1335,0.1337,0,0.0031,0.0086,0.0123,0.0255,0.0282,0.0321,0.0449,0.0519,0.0671,0.0743,0.0848,0.093,0.1043,0.1049,0.1212,0.1169,0.1233,0.1293,0.1299,0.1301,0.1303,0.1294,0.1327,0.1433,0.1356,0.1354,0.1353,0,-0.0088,0.0017,0.0046,0.0087,0.0237,0.0271,0.0349,0.0494,0.0567,0.0721,0.079,0.0938,0.1015,0.1125,0.1256,0.1238,0.1425,0.142,0.1463,0.1462,0.1413,0.1404,0.1561,0.1522,0.1521,0.1521,0.1521,0,-0.0158,-0.0134,-0.0012,0.0007,0.0053,0.0183,0.0246,0.0355,0.0505,0.0599,0.0755,0.0852,0.1035,0.1171,0.127,0.1412,0.1442,0.1475,0.1499,0.1399,0.1388,0.1508,0.1565,0.1525,0.1524,0.1523,0.1523,0,-0.0284,-0.0208,-0.0163,-0.0035,-0.0003,0.0025,0.0168,0.0233,0.0381,0.0508,0.0555,0.0796,0.0978,0.1152,0.1352,0.1425,0.161,0.1594,0.1457,0.1462,0.1581,0.1639,0.1834,0.1895,0.1662,0.1662,0.1662,0,-0.0342,-0.0334,-0.0228,-0.0199,-0.0147,-0.0084,-0.0027,0.0136,0.0219,0.0473,0.0533,0.0752,0.0911,0.1206,0.1352,0.1528,0.1642,0.156,0.151,0.1591,0.1674,0.1727,0.1769,0.1433,0.1432,0.143,0.1429,0,-0.0427,-0.0395,-0.0337,-0.0285,-0.0242,-0.0187,-0.0092,-0.0055,0.0156,0.0269,0.0478,0.0623,0.0909,0.1089,0.1321,0.1415,0.1609,0.1538,0.1669,0.1553,0.1577,0.1643,0.1353,0.1418,0.1419,0.142,0.142,0.1421,-0.0481,-0.0453,-0.0367,-0.0309,-0.0288,-0.025,-0.0202,-0.0122,-0.0016,0.0161,0.0341,0.0511,0.0837,0.114,0.1284,0.1497,0.1544,0.1543,0.162,0.1677,0.1703,0.1381,0.1444,0.1446,0.1447,0.1448,0.1449,0,-0.0454,-0.0399,-0.0373,-0.0292,-0.0273,-0.0255,-0.019,-0.0146,-0.0063,-0.0006,0.0149,0.0452,0.0746,0.1076,0.1422,0.1564,0.1608,0.1664,0.1711,0.1762,0.1503,0.1456,0.1468,0.1468,0.1468,0.1468,0.1468,0.1468,-0.0433,-0.0342,-0.0301,-0.0245,-0.0225,-0.0175,-0.014,-0.0145,-0.0126,-0.0047,0.0059,0.0178,0.0695,0.138,0.1751,0.1765,0.1944,0.1885,0.2073,0.1867,0.1862,0.1856,0.1828,0.1918,0.1918,0.2253,0.2256,0.2259]}],[{"header":{"parameterUnit":"m.s-1","parameterCategory":2,"la1":30.2991,"la2":30.254,"lo1":-89.0895,"lo2":-89.0444,"dx":0.0017,"dy":0.0017,"nx":28,"ny":28,"refTime":"2023-02-06T09:00:00:Z","depth":"2","parameterNumber":2,"parameterNumberName":"U-component_of_CURRENTS"},"data":[0,0,0,0,0,0,0,0,0,0,0,0,0,0,0,0,0,0,0,0,0,0,0,0,0,0,0,0,0,0,0,0,0,0,0,0,0,0,0,0,0,0,0,0,0,0,0,0,0,0,0,0,0,0,0,0,0,0,-0.2293,-0.2293,0,-0.2338,-0.2339,-0.2339,-0.2343,-0.2342,-0.2341,-0.234,-0.2323,-0.2324,-0.2324,0,0,0,0,0,0,0,0,0,0,0,0,0,-0.2243,-0.2244,-0.2293,-0.2293,-0.2294,-0.2338,-0.2339,-0.234,-0.2343,-0.2342,-0.2341,-0.234,-0.2323,-0.2324,-0.2324,0,0,0,0,0,0,0,0,0,0,0,0,0,-0.2278,-0.2245,-0.2293,-0.2298,-0.2298,-0.2338,-0.2339,-0.234,-0.2343,-0.2342,-0.234,-0.2339,-0.2323,-0.2323,-0.2324,-0.2352,0,0,-0.2325,-0.2326,0,0,0,0,0,0,0,0,-0.2276,-0.228,-0.2297,-0.2297,-0.2298,-0.233,-0.2315,-0.234,-0.2343,-0.233,-0.234,-0.2339,-0.2318,-0.2319,-0.2336,-0.2351,-0.2351,-0.2326,-0.2326,-0.2326,-0.2326,0,0,0,0,0,0,0,-0.2273,-0.2278,-0.2315,-0.2297,-0.2298,-0.2308,-0.2312,-0.232,-0.2332,-0.2331,-0.233,-0.233,-0.2319,-0.2336,-0.2336,-0.235,-0.2326,-0.2326,-0.2326,-0.2326,-0.2395,-0.2397,0,0,0,0,0,0,-0.226,-0.2276,-0.2313,-0.2316,-0.2279,-0.231,-0.2314,-0.2324,-0.2334,-0.2333,-0.2331,-0.233,-0.2336,-0.2335,-0.2335,-0.2381,-0.2326,-0.2326,-0.2327,-0.2394,-0.2395,-0.2397,0,0,0,0,0,0,-0.2259,-0.2264,-0.2311,-0.2293,-0.2299,-0.2312,-0.2323,-0.2326,-0.2341,-0.2334,-0.2332,-0.2342,-0.2335,-0.2334,-0.2347,-0.2379,-0.2327,-0.2327,-0.2392,-0.2394,-0.2396,-0.2463,0,0,0,0,0,0,-0.2258,-0.2263,-0.2286,-0.2293,-0.23,-0.2343,-0.2324,-0.2327,-0.2341,-0.234,-0.2343,-0.2341,-0.2334,-0.2347,-0.2348,-0.2379,-0.2328,-0.239,-0.2393,-0.2396,-0.2459,-0.2467,-0.2475,0,0,0,0,0,-0.2256,-0.2282,-0.2288,-0.2293,-0.2325,-0.2344,-0.235,-0.2356,-0.2342,-0.2363,-0.2359,-0.234,-0.2366,-0.2349,-0.2349,-0.2381,-0.2388,-0.2392,-0.2395,-0.2456,-0.2466,-0.2474,0,0,0,0,0,0,-0.2277,-0.2284,-0.2291,-0.232,-0.2336,-0.2343,-0.2364,-0.236,-0.2377,-0.2384,-0.2358,-0.2357,-0.2386,-0.2373,-0.2354,-0.241,-0.2375,-0.2379,-0.2421,-0.243,-0.2438,-0.2446,-0.2328,0,0,0,0,0,-0.2291,-0.2319,-0.2319,-0.2353,-0.2353,-0.236,-0.2373,-0.2386,-0.239,-0.2397,-0.2402,-0.2404,-0.2404,-0.2406,-0.242,-0.2444,-0.2417,-0.2466,-0.2474,-0.248,-0.2488,-0.2465,-0.2471,-0.2408,-0.2408,-0.2408,0,0,-0.2314,-0.2321,-0.234,-0.2361,-0.2371,-0.24,-0.2366,-0.24,-0.2437,-0.2393,-0.245,-0.2439,-0.2419,-0.2454,-0.2465,-0.2443,-0.2487,-0.2485,-0.249,-0.2495,-0.2469,-0.2475,-0.248,-0.2411,-0.241,-0.241,0,0,-0.2366,-0.237,-0.2407,-0.242,-0.2444,-0.2447,-0.2453,-0.2476,-0.2493,-0.2539,-0.2514,-0.2515,-0.2537,-0.2525,-0.2515,-0.2571,-0.2534,-0.2581,-0.2622,-0.2599,-0.2604,-0.2607,-0.2586,-0.2588,-0.2578,-0.2579,-0.2579,0,-0.2403,-0.2433,-0.2424,-0.2458,-0.2469,-0.2464,-0.25,-0.2527,-0.2564,-0.2571,-0.2569,-0.2584,-0.2569,-0.257,-0.2594,-0.2589,-0.257,-0.2584,-0.2608,-0.2611,-0.2613,-0.2591,-0.2591,-0.2582,-0.2582,-0.2581,-0.2581,0,-0.2466,-0.2501,-0.2517,-0.2556,-0.2573,-0.2604,-0.2619,-0.2662,-0.2672,-0.2679,-0.2703,-0.269,-0.2687,-0.2685,-0.2657,-0.267,-0.265,-0.2623,-0.258,-0.2623,-0.2597,-0.2597,-0.2587,-0.2586,-0.2585,-0.2584,0,0,-0.2514,-0.2557,-0.2566,-0.2586,-0.2621,-0.2636,-0.2701,-0.2725,-0.2748,-0.2788,-0.28,-0.2805,-0.2785,-0.2773,-0.2741,-0.2719,-0.272,-0.2686,-0.2683,-0.266,-0.2675,-0.2569,-0.2558,-0.2696,-0.2697,-0.2697,-0.2651,0,-0.2565,-0.2629,-0.2644,-0.2707,-0.2719,-0.274,-0.2791,-0.2824,-0.2835,-0.2859,-0.2833,-0.2825,-0.282,-0.2801,-0.2798,-0.2732,-0.2721,-0.2735,-0.2642,-0.264,-0.2535,-0.2554,-0.2368,-0.2304,-0.265,-0.265,-0.265,0,-0.2613,-0.2635,-0.2692,-0.2746,-0.2756,-0.2808,-0.2847,-0.2895,-0.2917,-0.2921,-0.2921,-0.2888,-0.2869,-0.2848,-0.28,-0.281,-0.2765,-0.2714,-0.271,-0.2586,-0.2532,-0.2316,-0.2288,-0.2648,-0.2648,-0.2648,-0.2648,0,-0.2599,-0.2675,-0.2708,-0.2724,-0.2783,-0.2828,-0.2872,-0.2909,-0.2908,-0.2933,-0.2916,-0.2919,-0.2878,-0.2855,-0.277,-0.2785,-0.2696,-0.2695,-0.2563,-0.2555,-0.2365,-0.2339,-0.2665,-0.2665,-0.2665,-0.2665,-0.2666,0,-0.2619,-0.2653,-0.2707,-0.2718,-0.2766,-0.2821,-0.2857,-0.2914,-0.2926,-0.2911,-0.2933,-0.2907,-0.2873,-0.2814,-0.2779,-0.266,-0.2707,-0.2572,-0.2534,-0.2384,-0.2362,-0.2634,-0.2631,-0.2664,-0.2664,-0.2664,-0.2665,0,-0.2604,-0.2637,-0.2669,-0.2733,-0.2754,-0.2787,-0.2826,-0.2827,-0.2876,-0.286,-0.2849,-0.2853,-0.2798,-0.2749,-0.2669,-0.2621,-0.2537,-0.2481,-0.2307,-0.2249,-0.2422,-0.2424,-0.2355,-0.2351,-0.2348,-0.2345,-0.2342,0,-0.2608,-0.2618,-0.2659,-0.2646,-0.2678,-0.2714,-0.272,-0.2785,-0.2778,-0.282,-0.2802,-0.275,-0.2653,-0.2514,-0.2428,-0.2321,-0.2429,-0.2105,-0.21,-0.242,-0.239,-0.2397,-0.2403,-0.1882,-0.1876,-0.1871,-0.1867,0,-0.2586,-0.2598,-0.2589,-0.256,-0.2563,-0.256,-0.26,-0.2579,-0.2648,-0.2604,-0.2553,-0.2463,-0.2385,-0.2173,-0.2063,-0.1993,-0.2114,-0.2001,-0.2353,-0.199,-0.1969,-0.1941,-0.1963,-0.1823,-0.1827,-0.183,-0.1833,-0.1835,-0.2543,-0.251,-0.247,-0.2432,-0.2421,-0.2381,-0.2328,-0.233,-0.2249,-0.216,-0.2257,-0.2083,-0.2039,-0.1752,-0.1679,-0.1673,-0.1805,-0.1744,-0.1761,-0.1783,-0.1737,-0.171,-0.1508,-0.151,-0.1513,-0.1514,-0.1516,0,-0.2416,-0.2367,-0.2339,-0.2248,-0.2167,-0.2229,-0.2196,-0.2048,-0.1877,-0.1881,-0.1754,-0.1505,-0.1373,-0.1422,-0.133,-0.1289,-0.1291,-0.1266,-0.1288,-0.1329,-0.1367,-0.1303,-0.0957,-0.0956,-0.0955,-0.0954,0,0,-0.2331,-0.2206,-0.2172,-0.1985,-0.1944,-0.1797,-0.1744,-0.1521,-0.1452,-0.1199,-0.1152,-0.1203,-0.1301,-0.1101,-0.106,-0.1022,-0.1163,-0.0966,-0.1401,-0.1463,-0.1499,-0.1615,-0.1559,0,0,0,0,0]},{"header":{"parameterUnit":"m.s-1","parameterCategory":2,"la1":30.2991,"la2":30.254,"lo1":-89.0895,"lo2":-89.0444,"dx":0.0017,"dy":0.0017,"nx":28,"ny":28,"refTime":"2023-02-06T09:00:00:Z","depth":"2","parameterNumber":3,"parameterNumberName":"V-component_of_CURRENTS"},"data":[0,0,0,0,0,0,0,0,0,0,0,0,0,0,0,0,0,0,0,0,0,0,0,0,0,0,0,0,0,0,0,0,0,0,0,0,0,0,0,0,0,0,0,0,0,0,0,0,0,0,0,0,0,0,0,0,0,0,-0.0311,-0.0311,0,-0.0351,-0.0351,-0.0352,-0.0295,-0.0293,-0.0291,-0.0289,-0.0103,-0.01,-0.0098,0,0,0,0,0,0,0,0,0,0,0,0,0,-0.021,-0.0212,-0.0311,-0.0311,-0.0311,-0.0351,-0.0351,-0.0352,-0.0296,-0.0293,-0.029,-0.0288,-0.0104,-0.0101,-0.0097,0,0,0,0,0,0,0,0,0,0,0,0,0,-0.0254,-0.0213,-0.031,-0.0286,-0.0284,-0.035,-0.0351,-0.0352,-0.0296,-0.0293,-0.029,-0.0287,-0.0105,-0.0101,-0.0097,-0.0137,0,0,-0.0084,-0.0082,0,0,0,0,0,0,0,0,-0.0252,-0.0258,-0.0289,-0.0288,-0.0286,-0.0312,-0.0248,-0.0268,-0.0297,-0.0294,-0.0289,-0.0285,-0.0153,-0.0145,-0.0166,-0.0128,-0.012,-0.0083,-0.0081,-0.0079,-0.0078,0,0,0,0,0,0,0,-0.0249,-0.0256,-0.0329,-0.029,-0.0288,-0.0281,-0.0284,-0.0253,-0.0239,-0.0294,-0.029,-0.0291,-0.015,-0.0171,-0.0161,-0.0118,-0.0083,-0.008,-0.0077,-0.0075,0.0137,0.014,0,0,0,0,0,0,-0.0242,-0.0254,-0.0327,-0.033,-0.0257,-0.0285,-0.0289,-0.0309,-0.0245,-0.0233,-0.0294,-0.0289,-0.018,-0.0166,-0.0154,0.0005,-0.0079,-0.0075,-0.0072,0.0134,0.0138,0.0141,0,0,0,0,0,0,-0.024,-0.0249,-0.0326,-0.0289,-0.0298,-0.029,-0.0314,-0.0312,-0.0285,-0.0247,-0.023,-0.0263,-0.0177,-0.016,-0.0073,0.0006,-0.0073,-0.0069,0.0131,0.0136,0.014,0.0193,0,0,0,0,0,0,-0.0238,-0.0249,-0.0233,-0.029,-0.03,-0.0354,-0.0317,-0.0315,-0.0293,-0.0285,-0.0216,-0.0199,-0.0173,-0.008,-0.0069,0.001,-0.0066,0.0127,0.0133,0.0138,0.0188,0.0199,0.0209,0,0,0,0,0,-0.0234,-0.0259,-0.0233,-0.0239,-0.0289,-0.0355,-0.0361,-0.0344,-0.0294,-0.0302,-0.0222,-0.0198,-0.0033,-0.0075,-0.0063,0.002,0.0124,0.0131,0.0138,0.0183,0.0197,0.0209,0,0,0,0,0,0,-0.0225,-0.0257,-0.0229,-0.0263,-0.0288,-0.0344,-0.035,-0.0327,-0.028,-0.0241,-0.0184,-0.0163,-0.0039,-0.003,-0.0077,0.0102,0.0059,0.0069,0.0089,0.0103,0.0113,0.0082,-0.0062,0,0,0,0,0,-0.0211,-0.0217,-0.026,-0.0276,-0.0297,-0.0307,-0.0315,-0.0306,-0.0288,-0.0264,-0.0174,-0.0087,-0.0016,0.0027,0.0096,0.0159,0.0169,0.023,0.0241,0.025,0.0236,0.0305,0.0319,0.0164,0.0164,0.0164,0,0,-0.0218,-0.0224,-0.0232,-0.0269,-0.029,-0.0306,-0.0306,-0.0327,-0.028,-0.0248,-0.0109,-0.0038,0.0015,0.0116,0.0171,0.0137,0.0306,0.0258,0.0265,0.0246,0.0313,0.0328,0.0341,0.0169,0.0168,0.0167,0,0,-0.0242,-0.0241,-0.0253,-0.0265,-0.0277,-0.0293,-0.0286,-0.0282,-0.0223,-0.0135,-0.0057,0.0049,0.0158,0.0221,0.0254,0.0356,0.0373,0.0405,0.0417,0.0486,0.0498,0.0509,0.0558,0.0573,0.0394,0.0394,0.0394,0,-0.0227,-0.0252,-0.027,-0.0273,-0.028,-0.0275,-0.0293,-0.0248,-0.0176,-0.0125,-0.0071,0.014,0.0203,0.0306,0.0355,0.0382,0.0409,0.0359,0.0496,0.0507,0.0517,0.0565,0.0581,0.0397,0.0397,0.0397,0.0396,0,-0.0266,-0.0257,-0.028,-0.0262,-0.0274,-0.0301,-0.0262,-0.0187,-0.0098,-0.0048,0.0118,0.0221,0.0332,0.0394,0.0399,0.0521,0.0517,0.0512,0.0452,0.0535,0.0582,0.0597,0.0402,0.0401,0.04,0.0399,0,0,-0.0322,-0.0305,-0.0305,-0.0294,-0.0272,-0.0309,-0.0209,-0.0173,-0.0102,0.0048,0.0141,0.0313,0.0384,0.0428,0.05,0.0557,0.0671,0.056,0.0562,0.0589,0.0815,0.0663,0.0665,0.069,0.0692,0.0694,0.0824,0,-0.0344,-0.0363,-0.033,-0.0329,-0.0363,-0.0296,-0.022,-0.0153,-0.0057,0.0057,0.0188,0.0299,0.0394,0.0451,0.0548,0.0629,0.0711,0.0635,0.0747,0.075,0.0588,0.0677,0.0638,0.0736,0.0838,0.0841,0.0843,0,-0.0394,-0.0405,-0.0431,-0.0383,-0.0389,-0.0353,-0.0276,-0.0197,-0.0051,0.0034,0.0181,0.0272,0.0423,0.0472,0.0697,0.0645,0.0744,0.0805,0.0812,0.0651,0.0624,0.067,0.0759,0.0867,0.0865,0.0864,0.0862,0,-0.049,-0.0467,-0.0496,-0.0486,-0.0436,-0.039,-0.0333,-0.0209,-0.0168,0.001,0.0037,0.0264,0.0334,0.0528,0.0682,0.0699,0.0873,0.0912,0.0883,0.0874,0.0848,0.0829,0.107,0.107,0.1069,0.1069,0.1069,0,-0.0547,-0.0563,-0.0537,-0.0554,-0.0542,-0.0473,-0.0421,-0.0305,-0.0215,-0.0196,0.0018,0.0069,0.0342,0.0469,0.0662,0.0797,0.088,0.0891,0.0898,0.0865,0.0847,0.0955,0.094,0.1074,0.1073,0.1072,0.1071,0,-0.0635,-0.0625,-0.0652,-0.0612,-0.059,-0.0578,-0.0506,-0.0491,-0.0364,-0.0334,-0.0304,-0.011,0.0074,0.0319,0.0579,0.0704,0.0879,0.0905,0.0826,0.0817,0.0855,0.0842,0.0925,0.0921,0.0917,0.0914,0.0911,0,-0.068,-0.0714,-0.0707,-0.0719,-0.0688,-0.0663,-0.0662,-0.0564,-0.0585,-0.0451,-0.0488,-0.0314,-0.0181,0.014,0.0389,0.0679,0.0767,0.076,0.0782,0.0842,0.0842,0.0834,0.0827,0.0811,0.0807,0.0805,0.0803,0,-0.0743,-0.074,-0.0751,-0.0798,-0.0811,-0.0833,-0.083,-0.0888,-0.0805,-0.0749,-0.0664,-0.0542,-0.0276,0.0008,0.0293,0.0462,0.0715,0.0706,0.0836,0.0796,0.0729,0.0729,0.0728,0.078,0.0782,0.0784,0.0785,0.0786,-0.0765,-0.078,-0.08,-0.0845,-0.0878,-0.0959,-0.0978,-0.1011,-0.1009,-0.0904,-0.0826,-0.057,-0.0367,0.006,0.0273,0.0494,0.0513,0.0627,0.064,0.0654,0.056,0.0484,0.0474,0.0474,0.0475,0.0475,0.0476,0,-0.0786,-0.0791,-0.0842,-0.0895,-0.0977,-0.095,-0.1066,-0.1082,-0.1063,-0.0943,-0.0792,-0.0516,-0.0244,0.0034,0.0336,0.046,0.0533,0.0506,0.0616,0.0633,0.0649,0.0562,0.0474,0.0475,0.0476,0.0477,0,0,-0.0793,-0.0843,-0.0886,-0.0986,-0.0992,-0.1071,-0.1118,-0.1105,-0.1049,-0.0873,-0.0666,-0.049,-0.0215,0.0008,0.018,0.0365,0.0469,0.0371,0.0345,0.0464,0.0481,0.0672,0.0546,0,0,0,0,0]}],[{"header":{"parameterUnit":"m.s-1","parameterCategory":2,"la1":30.2991,"la2":30.254,"lo1":-89.0895,"lo2":-89.0444,"dx":0.0017,"dy":0.0017,"nx":28,"ny":28,"refTime":"2023-02-06T09:00:00:Z","depth":"4","parameterNumber":2,"parameterNumberName":"U-component_of_CURRENTS"},"data":[0,0,0,0,0,0,0,0,0,0,0,0,0,0,0,0,0,0,0,0,0,0,0,0,0,0,0,0,0,0,0,0,0,0,0,0,0,0,0,0,0,0,0,0,0,0,0,0,0,0,0,0,0,0,0,0,0,0,-0.0882,-0.0883,0,-0.1,-0.1001,-0.1003,-0.1061,-0.1061,-0.106,-0.106,-0.1187,-0.1191,-0.1194,0,0,0,0,0,0,0,0,0,0,0,0,0,-0.0772,-0.0773,-0.0881,-0.0883,-0.0884,-0.0999,-0.1001,-0.1003,-0.1061,-0.1061,-0.106,-0.106,-0.1186,-0.119,-0.1195,0,0,0,0,0,0,0,0,0,0,0,0,0,-0.085,-0.0774,-0.0881,-0.0925,-0.093,-0.0999,-0.1001,-0.1004,-0.1061,-0.1061,-0.106,-0.106,-0.1185,-0.119,-0.1195,-0.1236,0,0,-0.1212,-0.1214,0,0,0,0,0,0,0,0,-0.0845,-0.0854,-0.0917,-0.0922,-0.0928,-0.1013,-0.1009,-0.1081,-0.1061,-0.1014,-0.106,-0.106,-0.1128,-0.1138,-0.1165,-0.1242,-0.1247,-0.1212,-0.1215,-0.1218,-0.1219,0,0,0,0,0,0,0,-0.0839,-0.085,-0.0931,-0.0918,-0.0925,-0.0961,-0.0971,-0.1023,-0.1074,-0.1018,-0.1022,-0.1031,-0.1132,-0.116,-0.1168,-0.1249,-0.1212,-0.1217,-0.122,-0.1222,-0.1371,-0.1372,0,0,0,0,0,0,-0.0817,-0.0844,-0.0927,-0.0934,-0.0882,-0.0962,-0.0974,-0.0988,-0.1073,-0.1085,-0.1031,-0.1033,-0.115,-0.1162,-0.1173,-0.1295,-0.1218,-0.1223,-0.1226,-0.137,-0.1371,-0.1372,0,0,0,0,0,0,-0.0814,-0.0823,-0.0922,-0.0889,-0.0904,-0.0964,-0.0979,-0.099,-0.1058,-0.1083,-0.1095,-0.1091,-0.1151,-0.1165,-0.1239,-0.1297,-0.1225,-0.123,-0.1369,-0.1371,-0.1372,-0.1493,0,0,0,0,0,0,-0.0811,-0.0822,-0.0857,-0.0888,-0.0905,-0.0965,-0.098,-0.0993,-0.106,-0.1065,-0.1138,-0.1147,-0.1152,-0.123,-0.1244,-0.1303,-0.1234,-0.1369,-0.137,-0.1371,-0.1489,-0.1499,-0.1507,0,0,0,0,0,-0.0806,-0.0838,-0.0858,-0.087,-0.094,-0.0965,-0.0978,-0.1021,-0.1064,-0.1085,-0.1141,-0.1146,-0.1247,-0.1237,-0.1252,-0.1314,-0.1368,-0.137,-0.1371,-0.1484,-0.1497,-0.1507,0,0,0,0,0,0,-0.0802,-0.0848,-0.087,-0.0914,-0.094,-0.0974,-0.1006,-0.1052,-0.1119,-0.1116,-0.1176,-0.1188,-0.1264,-0.1266,-0.1253,-0.135,-0.1301,-0.1306,-0.1382,-0.1394,-0.1403,-0.1385,-0.1239,0,0,0,0,0,-0.0818,-0.0861,-0.0889,-0.0927,-0.0936,-0.0988,-0.1021,-0.1028,-0.1075,-0.1107,-0.1171,-0.1219,-0.1278,-0.1319,-0.1341,-0.1422,-0.1413,-0.1459,-0.1469,-0.1477,-0.1468,-0.1513,-0.1526,-0.1377,-0.1377,-0.1377,0,0,-0.0823,-0.0859,-0.0882,-0.0931,-0.0955,-0.098,-0.1007,-0.1023,-0.1058,-0.1108,-0.12,-0.1255,-0.1301,-0.1372,-0.1406,-0.1391,-0.1515,-0.1479,-0.1487,-0.1472,-0.1516,-0.1531,-0.1544,-0.1378,-0.1378,-0.1378,0,0,-0.0825,-0.0881,-0.0904,-0.0934,-0.0958,-0.0982,-0.0999,-0.1042,-0.1075,-0.1149,-0.1201,-0.1275,-0.1381,-0.1417,-0.1455,-0.1526,-0.1554,-0.1564,-0.1625,-0.167,-0.1684,-0.1695,-0.1712,-0.1724,-0.1582,-0.1582,-0.1582,0,-0.0834,-0.0867,-0.0912,-0.0936,-0.0961,-0.0994,-0.1002,-0.1047,-0.1116,-0.1169,-0.1168,-0.1334,-0.1382,-0.149,-0.1541,-0.1548,-0.1593,-0.1593,-0.1687,-0.1698,-0.1707,-0.1722,-0.1734,-0.1588,-0.1588,-0.1587,-0.1586,0,-0.0836,-0.088,-0.0889,-0.0943,-0.0976,-0.0978,-0.1018,-0.1066,-0.1123,-0.1195,-0.1295,-0.1343,-0.1453,-0.1494,-0.1569,-0.1688,-0.1704,-0.169,-0.1668,-0.1731,-0.1741,-0.1751,-0.1597,-0.1595,-0.1593,-0.1592,0,0,-0.0794,-0.0876,-0.0877,-0.0914,-0.0968,-0.0988,-0.1039,-0.1113,-0.1182,-0.1248,-0.1346,-0.1468,-0.1536,-0.1578,-0.1653,-0.1721,-0.1858,-0.1788,-0.1788,-0.1821,-0.1989,-0.1743,-0.173,-0.1916,-0.1918,-0.192,-0.1973,0,-0.0775,-0.0813,-0.0861,-0.0913,-0.0936,-0.0994,-0.1057,-0.1134,-0.1211,-0.132,-0.1382,-0.1499,-0.1556,-0.1634,-0.1716,-0.1832,-0.1893,-0.1845,-0.1907,-0.1906,-0.1694,-0.1734,-0.1927,-0.198,-0.1983,-0.1984,-0.1985,0,-0.0754,-0.0785,-0.0809,-0.0912,-0.0926,-0.097,-0.1069,-0.1135,-0.1287,-0.1348,-0.1462,-0.1551,-0.1696,-0.1694,-0.1871,-0.1873,-0.1954,-0.1998,-0.2001,-0.1727,-0.1677,-0.1898,-0.2003,-0.2002,-0.2001,-0.1999,-0.1998,0,-0.0694,-0.0764,-0.0783,-0.0814,-0.0918,-0.0951,-0.1026,-0.116,-0.1232,-0.1392,-0.1433,-0.1612,-0.1694,-0.1804,-0.1881,-0.1961,-0.1996,-0.2088,-0.1905,-0.1888,-0.2046,-0.2033,-0.2169,-0.2169,-0.2169,-0.2169,-0.2169,0,-0.0664,-0.0694,-0.0763,-0.0782,-0.0834,-0.0927,-0.101,-0.1106,-0.1237,-0.13,-0.1463,-0.1461,-0.175,-0.1789,-0.1876,-0.1856,-0.1973,-0.1902,-0.1881,-0.2094,-0.2086,-0.2054,-0.204,-0.2171,-0.2171,-0.217,-0.217,0,-0.0603,-0.065,-0.0699,-0.0782,-0.0813,-0.0865,-0.1002,-0.1059,-0.1175,-0.123,-0.1282,-0.1463,-0.1531,-0.164,-0.1811,-0.1812,-0.1812,-0.1753,-0.1903,-0.1891,-0.1718,-0.171,-0.169,-0.1681,-0.1674,-0.1668,-0.1663,0,-0.0579,-0.0589,-0.0671,-0.0707,-0.0747,-0.083,-0.0871,-0.1022,-0.1046,-0.1137,-0.1114,-0.1258,-0.1333,-0.1331,-0.1499,-0.1574,-0.1569,-0.1581,-0.1753,-0.1684,-0.1668,-0.1671,-0.1672,-0.1652,-0.165,-0.1648,-0.1647,0,-0.054,-0.0568,-0.0601,-0.0643,-0.0691,-0.0734,-0.0784,-0.0796,-0.0899,-0.0987,-0.0953,-0.1023,-0.1073,-0.1239,-0.1252,-0.1297,-0.16,-0.1511,-0.1533,-0.1696,-0.1638,-0.163,-0.164,-0.1622,-0.1626,-0.1628,-0.1629,0,-0.0514,-0.0529,-0.0565,-0.0602,-0.064,-0.0615,-0.0667,-0.0656,-0.0714,-0.0788,-0.075,-0.0835,-0.1002,-0.1078,-0.1038,-0.1095,-0.1222,-0.1281,-0.1318,-0.1347,-0.1213,-0.1088,-0.0873,0,0,0,0,0,-0.0487,-0.0502,-0.0528,-0.0551,-0.0558,-0.0564,-0.0586,-0.062,-0.0661,-0.0603,-0.0696,-0.0691,-0.078,-0.0846,-0.0874,-0.0977,-0.1241,-0.1006,-0.133,-0.1486,-0.1514,-0.139,0,0,0,0,0,0,-0.0484,-0.051,-0.0511,-0.0472,-0.0453,-0.0439,-0.0443,-0.0471,-0.0444,-0.0508,-0.0564,-0.0637,-0.0747,-0.0752,-0.0852,-0.0879,-0.1071,-0.1084,-0.1082,-0.147,-0.1495,-0.1518,-0.14,0,0,0,0,0]},{"header":{"parameterUnit":"m.s-1","parameterCategory":2,"la1":30.2991,"la2":30.254,"lo1":-89.0895,"lo2":-89.0444,"dx":0.0017,"dy":0.0017,"nx":28,"ny":28,"refTime":"2023-02-06T09:00:00:Z","depth":"4","parameterNumber":3,"parameterNumberName":"V-component_of_CURRENTS"},"data":[0,0,0,0,0,0,0,0,0,0,0,0,0,0,0,0,0,0,0,0,0,0,0,0,0,0,0,0,0,0,0,0,0,0,0,0,0,0,0,0,0,0,0,0,0,0,0,0,0,0,0,0,0,0,0,0,0,0,-0.0441,-0.0441,0,-0.0425,-0.0425,-0.0425,-0.0386,-0.0385,-0.0384,-0.0383,-0.0329,-0.0328,-0.0327,0,0,0,0,0,0,0,0,0,0,0,0,0,-0.0403,-0.0404,-0.0441,-0.0441,-0.0441,-0.0425,-0.0425,-0.0425,-0.0386,-0.0385,-0.0384,-0.0383,-0.0329,-0.0328,-0.0327,0,0,0,0,0,0,0,0,0,0,0,0,0,-0.0406,-0.0405,-0.0441,-0.042,-0.0418,-0.0425,-0.0425,-0.0425,-0.0386,-0.0385,-0.0384,-0.0383,-0.0329,-0.0328,-0.0327,-0.0343,0,0,-0.0324,-0.0323,0,0,0,0,0,0,0,0,-0.0406,-0.0408,-0.0423,-0.0422,-0.0419,-0.0407,-0.0392,-0.0396,-0.0386,-0.0397,-0.0383,-0.0382,-0.0353,-0.035,-0.0349,-0.0341,-0.0338,-0.0324,-0.0323,-0.0323,-0.0322,0,0,0,0,0,0,0,-0.0406,-0.0408,-0.0434,-0.0423,-0.0421,-0.04,-0.0399,-0.0392,-0.038,-0.0396,-0.0394,-0.0393,-0.0351,-0.035,-0.0347,-0.0337,-0.0324,-0.0323,-0.0322,-0.0322,-0.035,-0.0351,0,0,0,0,0,0,-0.0413,-0.0408,-0.0435,-0.0434,-0.0411,-0.0401,-0.0401,-0.0411,-0.0381,-0.0376,-0.0394,-0.0392,-0.0352,-0.0348,-0.0345,-0.038,-0.0323,-0.0322,-0.0321,-0.0348,-0.035,-0.0351,0,0,0,0,0,0,-0.0412,-0.0416,-0.0435,-0.042,-0.0421,-0.0404,-0.0416,-0.0412,-0.0422,-0.038,-0.0374,-0.041,-0.0351,-0.0346,-0.0349,-0.0377,-0.0321,-0.032,-0.0346,-0.0349,-0.0351,-0.0439,0,0,0,0,0,0,-0.0411,-0.0416,-0.0437,-0.0421,-0.0422,-0.0444,-0.0417,-0.0412,-0.0423,-0.042,-0.0392,-0.0385,-0.035,-0.0351,-0.0348,-0.0374,-0.0319,-0.0345,-0.0347,-0.035,-0.0434,-0.0444,-0.0452,0,0,0,0,0,-0.041,-0.0436,-0.0439,-0.0442,-0.0449,-0.0445,-0.0444,-0.0426,-0.0426,-0.0432,-0.0417,-0.0386,-0.0365,-0.0351,-0.0347,-0.0374,-0.0343,-0.0347,-0.035,-0.043,-0.0442,-0.0451,0,0,0,0,0,0,-0.0425,-0.0434,-0.0436,-0.0463,-0.046,-0.0439,-0.0445,-0.0444,-0.0441,-0.0434,-0.0405,-0.0397,-0.0408,-0.0384,-0.037,-0.039,-0.035,-0.0352,-0.0412,-0.0423,-0.0431,-0.0437,-0.0318,0,0,0,0,0,-0.0443,-0.0469,-0.0463,-0.0487,-0.0483,-0.0474,-0.0476,-0.0462,-0.0452,-0.045,-0.0438,-0.0423,-0.0419,-0.0415,-0.04,-0.0416,-0.0393,-0.0431,-0.044,-0.0447,-0.045,-0.0446,-0.0455,-0.0362,-0.0362,-0.0362,0,0,-0.0457,-0.0465,-0.0481,-0.0493,-0.0485,-0.0498,-0.0471,-0.0471,-0.0488,-0.0445,-0.0469,-0.0454,-0.0431,-0.0442,-0.0446,-0.0425,-0.0464,-0.0451,-0.0458,-0.0456,-0.045,-0.0459,-0.0467,-0.0364,-0.0364,-0.0363,0,0,-0.0484,-0.0501,-0.0524,-0.053,-0.0526,-0.052,-0.0528,-0.0519,-0.0518,-0.0537,-0.0514,-0.0525,-0.0515,-0.051,-0.0505,-0.056,-0.0511,-0.0551,-0.06,-0.0598,-0.0605,-0.0611,-0.0601,-0.0605,-0.0555,-0.0556,-0.0556,0,-0.0502,-0.053,-0.0529,-0.0548,-0.056,-0.0539,-0.0559,-0.0561,-0.0559,-0.0576,-0.0551,-0.0566,-0.0552,-0.0578,-0.0592,-0.0582,-0.056,-0.0562,-0.0609,-0.0615,-0.062,-0.0607,-0.0611,-0.056,-0.056,-0.0559,-0.0559,0,-0.0535,-0.0565,-0.0574,-0.0602,-0.0617,-0.0624,-0.0625,-0.0641,-0.0644,-0.0654,-0.0678,-0.0653,-0.0662,-0.0665,-0.0644,-0.0678,-0.0645,-0.0621,-0.0582,-0.0634,-0.0618,-0.062,-0.0567,-0.0565,-0.0564,-0.0563,0,0,-0.0549,-0.0592,-0.0595,-0.0622,-0.0643,-0.0655,-0.0691,-0.072,-0.0755,-0.075,-0.0789,-0.0793,-0.0778,-0.0772,-0.0745,-0.0745,-0.0771,-0.0699,-0.0696,-0.0688,-0.0752,-0.0653,-0.0646,-0.0746,-0.0747,-0.0748,-0.0729,0,-0.057,-0.0614,-0.0638,-0.0693,-0.0712,-0.0728,-0.077,-0.0801,-0.0817,-0.0849,-0.0833,-0.0857,-0.0818,-0.082,-0.0814,-0.0778,-0.0779,-0.0778,-0.0702,-0.07,-0.0606,-0.0646,-0.075,-0.073,-0.0731,-0.0731,-0.0731,0,-0.0592,-0.0616,-0.0666,-0.0738,-0.075,-0.0792,-0.0855,-0.0892,-0.0935,-0.0945,-0.0959,-0.0941,-0.0947,-0.0897,-0.0863,-0.0856,-0.0816,-0.0783,-0.0781,-0.0657,-0.0605,-0.0665,-0.0735,-0.0735,-0.0734,-0.0734,-0.0734,0,-0.0585,-0.0646,-0.0688,-0.0709,-0.0779,-0.082,-0.0867,-0.0928,-0.0967,-0.1011,-0.1025,-0.1024,-0.1017,-0.0965,-0.0887,-0.0881,-0.0827,-0.0814,-0.069,-0.0683,-0.0738,-0.0731,-0.0798,-0.0798,-0.0798,-0.0798,-0.0798,0,-0.0597,-0.0638,-0.0691,-0.0714,-0.0783,-0.0836,-0.0918,-0.0963,-0.1021,-0.1053,-0.1069,-0.1053,-0.1032,-0.0985,-0.091,-0.0791,-0.0846,-0.0702,-0.0673,-0.0776,-0.0774,-0.0739,-0.0733,-0.0798,-0.0798,-0.0798,-0.0798,0,-0.0589,-0.0625,-0.0679,-0.0749,-0.0784,-0.0835,-0.0948,-0.0995,-0.1051,-0.1079,-0.1091,-0.1101,-0.1029,-0.0975,-0.0902,-0.0821,-0.0724,-0.067,-0.0782,-0.0759,-0.0582,-0.058,-0.055,-0.0547,-0.0543,-0.0541,-0.0539,0,-0.0591,-0.0613,-0.0689,-0.0734,-0.0774,-0.0858,-0.0913,-0.0999,-0.1029,-0.1068,-0.1055,-0.1039,-0.1008,-0.0846,-0.0789,-0.0659,-0.0627,-0.0599,-0.0598,-0.0583,-0.0557,-0.0561,-0.0563,-0.0534,-0.0533,-0.0532,-0.0532,0,-0.0596,-0.0622,-0.0656,-0.073,-0.0796,-0.0865,-0.0937,-0.0956,-0.1015,-0.1053,-0.1008,-0.0949,-0.0867,-0.0787,-0.07,-0.0594,-0.0631,-0.0567,-0.0573,-0.0572,-0.0562,-0.0541,-0.0547,-0.0521,-0.0522,-0.0523,-0.0524,0,-0.06,-0.0619,-0.0671,-0.0735,-0.081,-0.0858,-0.0898,-0.0917,-0.0957,-0.0974,-0.094,-0.0881,-0.0879,-0.0747,-0.064,-0.0553,-0.0528,-0.0507,-0.0516,-0.0527,-0.0513,-0.0496,-0.0413,0,0,0,0,0,-0.0608,-0.0642,-0.0691,-0.0755,-0.0812,-0.0861,-0.0911,-0.0933,-0.0951,-0.0904,-0.0931,-0.0834,-0.0705,-0.0672,-0.0564,-0.0576,-0.0516,-0.0444,-0.0497,-0.0462,-0.0474,-0.0451,0,0,0,0,0,0,-0.0627,-0.0677,-0.0686,-0.0756,-0.0795,-0.0859,-0.0887,-0.0893,-0.0868,-0.0874,-0.0813,-0.0789,-0.0676,-0.0766,-0.0559,-0.0535,-0.0546,-0.0398,-0.0395,-0.0455,-0.0466,-0.0476,-0.0456,0,0,0,0,0]}]]